Flag for Poland Weather past 2 weeks in Lidzbark Warmiński, Poland

Now
57 °F

Passing clouds.


Feels Like: 57 °F
Forecast: 46 / 73 °F
Wind: 2 mph from Southeast

Location: Ketrzyn

Current Time: Sep 20, 2014 at 1:57:15 AM

Latest Report: Sep 20, 2014 at 1:00 AM


Visibility: 12 mi

Pressure: 30.03 "Hg

Humidity: 69%

Dew point: 47 °F

Location of Lidzbark WarmińskiLocation

Historic Weather in Lidzbark Warmiński — Graph

°F

Lidzbark Warmiński temperature yesterday

Maximum temperature yesterday: 69 °F (at 3:00 PM)
Minimum temperature yesterday: 52 °F (at 7:00 AM)
Average temperature yesterday: 62 °F

Past Weeks' High & Low Weather Summary

 TemperatureHumidityPressure
High80 °F (Sep 13, 4:00 PM)97% (Sep 11, 3:00 AM)30.34 "Hg (Sep 11, 3:00 AM)
Low47 °F (Sep 16, 6:00 AM)34% (Sep 7, 5:00 PM)29.90 "Hg (Sep 9, 4:00 PM)
Average62 °F68%30.13 "Hg
* Reported Midnight between Sep 4 and Sep 5 — Midnight between Sep 19 and Sep 20, Lidzbark Warmiński, Weather by CustomWeather, © 2014

Note: Actual official high and low records may vary slightly from our data, if they occured in-between our weather recording intervals... More about our weather records

Advertising

Lidzbark Warmiński weather history for previous 24 hours

 ConditionsComfort  
Time TempWeatherWind HumidityBarometerVisibility
12:00 AM
Sep 20
58 °FPassing clouds.3 mph67%30.04 "Hg12 mi
10:00 PM
Sep 19
59 °FPassing clouds.5 mph66%30.06 "Hg11 mi
9:00 PM60 °FPassing clouds.5 mph64%30.06 "Hg11 mi
8:00 PM62 °FPassing clouds.5 mph60%30.06 "Hg12 mi
7:00 PM64 °FPassing clouds.5 mph58%30.06 "Hg12 mi
6:00 PM66 °FPartly sunny.5 mph54%30.06 "Hg12 mi
5:00 PM68 °FPartly sunny.7 mph50%30.07 "Hg12 mi
4:00 PM68 °FOvercast.7 mph48%30.07 "Hg15 mi
3:00 PM69 °FOvercast.7 mph46%30.08 "Hg14 mi
2:00 PM69 °FPartly sunny.8 mph48%30.09 "Hg7 mi
1:00 PM67 °FPartly sunny.8 mph50%30.11 "Hg7 mi
12:00 PM64 °FPartly sunny.6 mph57%30.12 "Hg12 mi
11:00 AM63 °FPartly sunny.6 mph57%30.13 "Hg11 mi
10:00 AM60 °FPartly sunny.5 mph62%30.14 "Hg15 mi
9:00 AM56 °FPartly sunny.6 mph67%30.15 "Hg12 mi
8:00 AM55 °FPartly sunny.3 mph69%30.15 "Hg12 mi
7:00 AM52 °FPartly sunny.5 mph74%30.15 "Hg13 mi
5:00 AM52 °FPassing clouds.3 mph76%30.16 "Hg12 mi
2:00 AM54 °FClear.5 mph73%30.17 "Hg12 mi
Weather by CustomWeather, © 2014

See weather overviewHow to use our weather pages